Погода в Трефиловке

Россия / Белгородская область     50°42′53″N   35°53′28″E
темп.,
°C
ветер,
м/с
пор.,
м/с
влажн.,
%
обл.,
%
осадки,
мм/ч
давл.,
гПа
погр.,
м
29 ноября, пн
пн2900:00+5юв41096100 0.0 1007216
03:00+5вюв4998100 0.3 1005203
06:00+7юв51298100 1.1 1001428
09:00+8ю41199100 1.3 1001427
12:00+10ю61292100 0.1 1000769
15:00+10ююв81691100 0.8 995818
18:00+10ююв101894100 7.1 990900
21:00+11ю101882100 11.6 984999
30 ноября, вт
вт3000:00+11юз111789100 4.0 9821117
03:00+8зюз101588100 5.0 9851284
06:00+6зюз10147997 0.6 9901221
09:00+3зюз111770100 0.6 9941106
12:00+3зюз101665100 0.0 9961367
15:00+3зюз9146593 0.0 9961379
18:00+2зюз61170100 0.0 997855
21:00+1з61071100 0.0 996616
1 декабря, ср
ср100:000зсз51078100 0.0 995647
03:00−1з488233 0.0 996454
06:00−2зюз58865 0.0 997431
09:00−2юз5886100 0.0 998463
12:000юз5878100 0.0 998675
15:000ююз5891100 0.4 997604
18:00−1юз269883 0.3 998313
21:00−1сз499533 0.4 1001384
2 декабря, чт
чт200:00−2зсз489331 0.0 1004376
03:00−3зюз478799 0.0 1006366
06:00−3юз4979100 0.0 1007500
09:00−2ююз61274100 0.0 1008535
12:00+1ююз81669100 0.1 1007664
15:00+2ююз8157498 0.1 1006602
18:00+2ююз71788100 0.0 1006521
21:00+3ююз61591100 0.0 1006515
3 декабря, пт
пт300:00+2юз5139163 0.0 1007340
03:00+1ююз51294100 0.0 1007268
06:00+4ююз71291100 0.0 1007439
09:00+4ю61395100 0.0 1007395
12:00+7ю81587100 0.0 1005863
15:00+8ююз91477100 0.0 1004950
18:00+8ю81678100 0.0 1003774
21:00+8ююз91786100 0.0 1002863